Owosso, MI

10:06 AM EDT on May 23, 2017 (GMT -0400)
Owosso

Weather History for KRNP - December, 2012

Change the Weather History Date:

Tuesday, December 18, 2012

  Actual Average (KFNT) Record (KFNT)
Temperature  
Mean Temperature 36 °F -  
Max Temperature 41 °F 31 °F 54 °F (1939)
Min Temperature 31 °F 18 °F -7 °F (1926)
Degree Days  
Heating Degree Days 29    
Moisture  
Dew Point 29 °F    
Average Humidity 78    
Maximum Humidity 96    
Minimum Humidity 51    
Precipitation  
Precipitation 0.00 in - - ()
Sea Level Pressure  
Sea Level Pressure 29.71 in    
Wind  
Wind Speed 3 mph (West)    
Max Wind Speed 12 mph    
Max Gust Speed -    
Visibility 8 miles    
Events Snow    
Averages and records for this station are not official NWS values.
T = Trace of Precipitation, MM = Missing Value Source: NWS Daily Summary

Daily Weather History Graph

Daily Weather History Graph

Search for Another Location

Airport or City:

Trip Planner

Search our weather history database for the weather conditions in past years. The results will help you decide how hot, cold, wet, or windy it might be!

Date:

Astronomy

Dec. 18, 2012 Rise Set
Actual Time 8:03 AM EST 5:03 PM EST
Civil Twilight 7:30 AM EST 5:36 PM EST
Nautical Twilight 6:54 AM EST 6:12 PM EST
Astronomical Twilight 6:20 AM EST 6:46 PM EST
Moon 11:34 AM EST (12/18) 11:37 PM EST (12/18)
Length of Visible Light 10h 05m
Length of Day
9h 00m
Waxing Crescent, 34% of the Moon is Illuminated
Dec 18
Waxing Crescent
Dec 20
First Quarter
Dec 28
Full
Jan 4
Last Quarter
Jan 11
New

Hourly Weather History & Observations

Time (EST) Temp. Windchill Dew Point Humidity Pressure Visibility Wind Dir Wind Speed Gust Speed Precip Events Conditions
12:15 AM 38.3 °F 35.9 °F 32.5 °F 80% 29.65 in 10.0 mi NW 3.5 mph - N/A   Overcast
12:35 AM 37.8 °F - 32.4 °F 81% 29.64 in 10.0 mi Calm Calm - N/A   Overcast
12:55 AM 37.4 °F - 32.2 °F 81% 29.64 in 10.0 mi Calm Calm - N/A   Overcast
1:15 AM 36.9 °F - 32.0 °F 83% 29.64 in 10.0 mi Calm Calm - N/A   Mostly Cloudy
1:35 AM 36.1 °F 33.5 °F 32.0 °F 85% 29.65 in 10.0 mi WNW 3.5 mph - N/A   Mostly Cloudy
1:55 AM 35.8 °F - 32.0 °F 86% 29.65 in 10.0 mi Calm Calm - N/A   Overcast
2:15 AM 35.4 °F - 31.8 °F 87% 29.65 in 10.0 mi Calm Calm - N/A   Mostly Cloudy
2:35 AM 34.7 °F 30.6 °F 31.3 °F 87% 29.65 in 10.0 mi WNW 4.6 mph - N/A   Mostly Cloudy
2:55 AM 34.3 °F 31.4 °F 31.1 °F 88% 29.66 in 10.0 mi West 3.5 mph - N/A   Mostly Cloudy
3:15 AM 34.5 °F 29.4 °F 31.1 °F 87% 29.66 in 10.0 mi WNW 5.8 mph - N/A   Mostly Cloudy
3:35 AM 34.0 °F 31.0 °F 30.6 °F 87% 29.66 in 10.0 mi WNW 3.5 mph - N/A   Mostly Cloudy
3:54 AM 33.8 °F 30.8 °F 30.2 °F 87% 29.66 in 10.0 mi WNW 3.5 mph - N/A   Mostly Cloudy
4:15 AM 33.4 °F 29.1 °F 30.2 °F 88% 29.66 in 10.0 mi West 4.6 mph - N/A   Mostly Cloudy
4:35 AM 33.3 °F 30.2 °F 30.2 °F 89% 29.66 in 10.0 mi WNW 3.5 mph - N/A   Scattered Clouds
4:55 AM 32.9 °F 28.5 °F 30.2 °F 90% 29.67 in 7.0 mi West 4.6 mph - N/A   Scattered Clouds
5:15 AM 32.9 °F 27.5 °F 30.0 °F 89% 29.67 in 7.0 mi West 5.8 mph - N/A   Scattered Clouds
5:35 AM 32.5 °F 27.1 °F 30.0 °F 90% 29.68 in 7.0 mi West 5.8 mph - N/A   Mostly Cloudy
5:55 AM 32.0 °F - 29.3 °F 90% 29.69 in 7.0 mi Calm Calm - N/A   Mostly Cloudy
6:15 AM 31.8 °F 28.5 °F 28.9 °F 89% 29.69 in 7.0 mi West 3.5 mph - N/A   Scattered Clouds
6:35 AM 31.1 °F - 28.6 °F 90% 29.70 in 7.0 mi Calm Calm - N/A   Scattered Clouds
7:15 AM 31.5 °F 25.8 °F 29.5 °F 92% 29.72 in 5.0 mi WSW 5.8 mph - N/A   Overcast
7:35 AM 31.8 °F 28.5 °F 29.8 °F 92% 29.72 in 5.0 mi West 3.5 mph - N/A   Overcast
7:55 AM 31.6 °F 28.3 °F 29.7 °F 92% 29.72 in 5.0 mi WSW 3.5 mph - N/A   Overcast
8:15 AM 31.6 °F 25.1 °F 29.7 °F 92% 29.72 in 4.0 mi WSW 6.9 mph - N/A   Mostly Cloudy
8:34 AM 31.5 °F 24.9 °F 29.5 °F 92% 29.73 in 4.0 mi West 6.9 mph - N/A   Scattered Clouds
8:55 AM 32.0 °F 24.8 °F 30.0 °F 92% 29.73 in 5.0 mi West 8.1 mph - N/A   Clear
9:13 AM 32.9 °F 25.9 °F 30.2 °F 90% 29.74 in 5.0 mi West 8.1 mph - N/A   Clear
9:35 AM 33.6 °F 26.2 °F 29.5 °F 85% 29.74 in 7.0 mi West 9.2 mph - N/A   Clear
9:55 AM 34.7 °F 28.1 °F 29.5 °F 81% 29.75 in 10.0 mi West 8.1 mph - N/A   Clear
10:15 AM 36.1 °F 28.7 °F 29.3 °F 76% 29.75 in 10.0 mi West 10.4 mph - N/A   Clear
10:35 AM 37.2 °F 29.6 °F 28.9 °F 72% 29.76 in 10.0 mi West 11.5 mph - N/A   Clear
10:55 AM 38.1 °F 31.7 °F 28.9 °F 70% 29.76 in 10.0 mi West 9.2 mph - N/A   Clear
11:14 AM 38.3 °F 31.4 °F 28.4 °F 68% 29.76 in 10.0 mi West 10.4 mph - N/A   Clear
11:35 AM 38.7 °F 31.8 °F 28.6 °F 67% 29.76 in 10.0 mi West 10.4 mph - N/A   Clear
12:15 PM 40.1 °F 34.1 °F 28.2 °F 63% 29.74 in 10.0 mi WSW 9.2 mph - N/A   Clear
12:35 PM 40.5 °F 37.3 °F 27.9 °F 61% 29.74 in 10.0 mi West 4.6 mph - N/A   Clear
12:40 PM 40.6 °F 35.4 °F 27.3 °F 59% 29.74 in 10.0 mi WNW 8.1 mph - N/A   Clear
1:16 PM 41.0 °F 35.2 °F 28.4 °F 61% 29.74 in 10.0 mi West 9.2 mph - N/A   Mostly Cloudy
1:37 PM 41.0 °F 37.1 °F 26.6 °F 57% 29.73 in 10.0 mi WNW 5.8 mph - N/A   Scattered Clouds
1:56 PM 41.0 °F 36.4 °F 24.8 °F 53% 29.73 in 10.0 mi WSW 6.9 mph - N/A   Clear
2:16 PM 41.0 °F 37.1 °F 24.8 °F 53% 29.73 in 10.0 mi WSW 5.8 mph - N/A   Clear
2:35 PM 41.9 °F 40.0 °F 25.0 °F 51% 29.71 in 10.0 mi West 3.5 mph - N/A   Clear
2:55 PM 41.7 °F 39.8 °F 24.8 °F 51% 29.71 in 10.0 mi SSW 3.5 mph - N/A   Clear
3:15 PM 41.4 °F 39.4 °F 25.2 °F 53% 29.71 in 10.0 mi South 3.5 mph - N/A   Clear
3:35 PM 39.9 °F 35.8 °F 24.4 °F 54% 29.70 in 10.0 mi SSW 5.8 mph - N/A   Clear
3:55 PM 39.9 °F - 25.7 °F 57% 29.70 in 10.0 mi Calm Calm - N/A   Clear
4:15 PM 40.6 °F - 25.7 °F 55% 29.71 in 10.0 mi Calm Calm - N/A   Clear
4:35 PM 40.3 °F 38.2 °F 26.2 °F 57% 29.71 in 10.0 mi South 3.5 mph - N/A   Scattered Clouds
4:55 PM 39.7 °F 36.5 °F 25.9 °F 58% 29.71 in 10.0 mi South 4.6 mph - N/A   Mostly Cloudy
5:15 PM 39.2 °F - 26.6 °F 61% 29.71 in 10.0 mi Calm Calm - N/A   Mostly Cloudy
5:35 PM 38.7 °F - 26.6 °F 62% 29.70 in 10.0 mi Calm Calm - N/A   Mostly Cloudy
5:54 PM 38.3 °F - 27.1 °F 64% 29.70 in 10.0 mi Calm Calm - N/A   Overcast
6:15 PM 38.1 °F - 28.0 °F 67% 29.70 in 10.0 mi Calm Calm - N/A   Overcast
6:35 PM 38.7 °F - 27.7 °F 65% 29.70 in 10.0 mi Calm Calm - N/A   Overcast
6:55 PM 38.5 °F - 28.4 °F 67% 29.71 in 10.0 mi Calm Calm - N/A   Overcast
7:15 PM 38.5 °F - 28.4 °F 67% 29.71 in 10.0 mi Calm Calm - N/A   Overcast
7:35 PM 38.1 °F 34.6 °F 29.5 °F 71% 29.73 in 10.0 mi SSW 4.6 mph - N/A   Overcast
7:55 PM 35.4 °F - 31.3 °F 85% 29.72 in 3.0 mi Calm Calm - N/A Snow Light Snow
8:15 PM 34.3 °F - 32.0 °F 91% 29.74 in 2.5 mi Calm Calm - N/A Snow Light Snow
8:35 PM 33.8 °F - 32.0 °F 93% 29.74 in 1.8 mi Calm Calm - N/A Snow Light Snow
8:55 PM 34.7 °F - 32.9 °F 93% 29.75 in 2.5 mi Calm Calm - N/A Snow Light Snow
9:15 PM 33.8 °F - 32.2 °F 94% 29.74 in 1.8 mi Calm Calm - N/A Snow Light Snow
9:35 PM 33.8 °F - 32.4 °F 94% 29.74 in 1.8 mi Calm Calm - N/A Snow Light Snow
9:55 PM 33.8 °F 30.8 °F 32.4 °F 94% 29.73 in 2.0 mi ENE 3.5 mph - N/A Snow Light Snow
10:15 PM 33.8 °F 30.8 °F 32.5 °F 95% 29.73 in 2.5 mi ENE 3.5 mph - N/A   Overcast
10:35 PM 34.0 °F - 32.9 °F 96% 29.73 in 3.0 mi Calm Calm - N/A   Overcast
10:55 PM 34.0 °F - 32.9 °F 96% 29.73 in 3.0 mi Calm Calm - N/A   Overcast
11:16 PM 34.0 °F - 32.9 °F 96% 29.73 in 4.0 mi Calm Calm - N/A   Overcast
11:35 PM 34.0 °F - 32.9 °F 96% 29.74 in 4.0 mi Calm Calm - N/A   Overcast
11:55 PM 34.0 °F - 32.9 °F 96% 29.74 in 4.0 mi Calm Calm - N/A   Overcast